Location: Coll
(42.4728°N, 0.7714°E)
Time: 07:33:51
(UTC+00:00)

CENTAUR R/B - Pass Details

Date: 23 October 2020
Orbit: 749 x 1439 km, 63.5° (Epoch: 22 November)

Event Time Altitude Azimuth Distance (km) Brightness Sun altitude
Exits shadow 04:06:45 33° 196° (SSW) 1,476 3.2 -25.1°
Maximum altitude 04:09:33 71° 121° (ESE) 1,003 2.6 -24.6°
Drops below altitude 10° 04:16:20 10° 39° (NE) 2,931 5.6 -23.4°
Sets 04:19:14 0° 38° (NE) 4,002 6.3 -22.8°
